Time,TemperatureF,DewpointF,PressureIn,WindDirection,WindDirectionDegrees,WindSpeedMPH,WindSpeedGustMPH,Humidity,HourlyPrecipIn,Conditions,Clouds,dailyrainin,SoftwareType,DateUTC
2013-03-03 00:07:00,15.0,10.0,30.19,NW,322,3.0,-999.0,82,-99.99,,,0.00,weatherlink.com 1.10,2013-03-03 05:07:00,
2013-03-03 00:22:00,14.9,10.0,30.18,NW,321,4.0,-999.0,82,-99.99,,,0.00,weatherlink.com 1.10,2013-03-03 05:22:00,
2013-03-03 00:37:00,14.5,10.0,30.18,NW,323,1.0,-999.0,82,-99.99,,,0.00,weatherlink.com 1.10,2013-03-03 05:37:00,
2013-03-03 00:52:00,13.6,9.0,30.18,NW,323,1.0,-999.0,82,-99.99,,,0.00,weatherlink.com 1.10,2013-03-03 05:52:00,
2013-03-03 01:07:00,12.9,9.0,30.18,NW,322,0.0,-999.0,84,-99.99,,,0.00,weatherlink.com 1.10,2013-03-03 06:07:00,
2013-03-03 01:22:00,12.3,8.0,30.18,NW,322,2.0,-999.0,84,-99.99,,,0.00,weatherlink.com 1.10,2013-03-03 06:22:00,
2013-03-03 01:37:00,12.0,8.0,30.18,NW,322,3.0,-999.0,85,-99.99,,,0.00,weatherlink.com 1.10,2013-03-03 06:37:00,
2013-03-03 01:52:00,11.4,8.0,30.17,NW,322,1.0,-999.0,85,-99.99,,,0.00,weatherlink.com 1.10,2013-03-03 06:52:00,
2013-03-03 02:08:00,11.2,8.0,30.17,NW,322,1.0,-999.0,86,-99.99,,,0.00,weatherlink.com 1.10,2013-03-03 07:08:00,
2013-03-03 02:23:00,11.4,8.0,30.17,NW,322,2.0,-999.0,86,-99.99,,,0.00,weatherlink.com 1.10,2013-03-03 07:23:00,
2013-03-03 02:38:00,10.4,7.0,30.17,NW,322,0.0,-999.0,86,-99.99,,,0.00,weatherlink.com 1.10,2013-03-03 07:38:00,
2013-03-03 02:53:00,10.5,7.0,30.17,NW,322,0.0,-999.0,87,-99.99,,,0.00,weatherlink.com 1.10,2013-03-03 07:53:00,
2013-03-03 03:08:00,10.3,7.0,30.17,NW,322,2.0,-999.0,86,-99.99,,,0.00,weatherlink.com 1.10,2013-03-03 08:08:00,
2013-03-03 03:23:00,10.0,7.0,30.17,NW,321,2.0,-999.0,86,-99.99,,,0.00,weatherlink.com 1.10,2013-03-03 08:23:00,
2013-03-03 03:38:00,10.1,7.0,30.17,NW,321,3.0,-999.0,86,-99.99,,,0.00,weatherlink.com 1.10,2013-03-03 08:38:00,
2013-03-03 03:53:00,10.4,7.0,30.16,NNW,332,2.0,-999.0,86,-99.99,,,0.00,weatherlink.com 1.10,2013-03-03 08:53:00,
2013-03-03 04:08:00,10.7,7.0,30.16,NNW,329,3.0,-999.0,86,-99.99,,,0.00,weatherlink.com 1.10,2013-03-03 09:08:00,
2013-03-03 04:23:00,10.9,8.0,30.16,NNW,333,4.0,-999.0,86,-99.99,,,0.00,weatherlink.com 1.10,2013-03-03 09:23:00,
2013-03-03 04:38:00,10.9,7.0,30.16,NW,325,3.0,-999.0,85,-99.99,,,0.00,weatherlink.com 1.10,2013-03-03 09:38:00,
2013-03-03 04:53:00,10.9,8.0,30.16,NNW,328,4.0,-999.0,86,-99.99,,,0.00,weatherlink.com 1.10,2013-03-03 09:53:00,
2013-03-03 05:08:00,11.5,8.0,30.16,NNW,336,4.0,-999.0,87,-99.99,,,0.00,weatherlink.com 1.10,2013-03-03 10:08:00,
2013-03-03 05:24:00,12.2,9.0,30.16,NNW,336,5.0,-999.0,87,-99.99,,,0.00,weatherlink.com 1.10,2013-03-03 10:24:00,
2013-03-03 05:39:00,12.5,9.0,30.16,NNW,329,3.0,-999.0,86,-99.99,,,0.00,weatherlink.com 1.10,2013-03-03 10:39:00,
2013-03-03 05:54:00,12.6,10.0,30.17,NNW,330,3.0,-999.0,87,-99.99,,,0.00,weatherlink.com 1.10,2013-03-03 10:54:00,
2013-03-03 06:09:00,12.6,9.0,30.17,NNW,330,3.0,-999.0,86,-99.99,,,0.00,weatherlink.com 1.10,2013-03-03 11:09:00,
2013-03-03 06:24:00,12.6,10.0,30.16,NNW,331,0.0,-999.0,87,-99.99,,,0.00,weatherlink.com 1.10,2013-03-03 11:24:00,
2013-03-03 06:39:00,13.4,11.0,30.17,NNW,331,0.0,-999.0,89,-99.99,,,0.00,weatherlink.com 1.10,2013-03-03 11:39:00,
2013-03-03 06:54:00,14.1,12.0,30.17,NNW,331,0.0,-999.0,89,-99.99,,,0.00,weatherlink.com 1.10,2013-03-03 11:54:00,
2013-03-03 07:09:00,14.8,12.0,30.18,NNW,331,0.0,-999.0,89,-99.99,,,0.00,weatherlink.com 1.10,2013-03-03 12:09:00,
2013-03-03 07:24:00,15.2,13.0,30.18,NNW,331,0.0,-999.0,89,-99.99,,,0.00,weatherlink.com 1.10,2013-03-03 12:24:00,
2013-03-03 07:39:00,15.7,13.0,30.18,NNW,332,0.0,-999.0,90,-99.99,,,0.00,weatherlink.com 1.10,2013-03-03 12:39:00,
2013-03-03 07:54:00,16.4,14.0,30.18,NNW,348,4.0,-999.0,90,-99.99,,,0.00,weatherlink.com 1.10,2013-03-03 12:54:00,
2013-03-03 08:09:00,17.3,15.0,30.18,North,355,4.0,-999.0,89,-99.99,,,0.00,weatherlink.com 1.10,2013-03-03 13:09:00,
2013-03-03 08:25:00,18.0,15.0,30.18,NNW,348,4.0,-999.0,88,-99.99,,,0.00,weatherlink.com 1.10,2013-03-03 13:25:00,
2013-03-03 08:40:00,18.6,15.0,30.18,NNE,19,10.0,-999.0,85,-99.99,,,0.00,weatherlink.com 1.10,2013-03-03 13:40:00,
2013-03-03 08:55:00,19.1,15.0,30.18,North,355,7.0,-999.0,82,-99.99,,,0.00,weatherlink.com 1.10,2013-03-03 13:55:00,
2013-03-03 09:10:00,19.7,15.0,30.18,North,355,6.0,-999.0,81,-99.99,,,0.00,weatherlink.com 1.10,2013-03-03 14:10:00,
2013-03-03 09:25:00,19.9,15.0,30.18,North,355,8.0,-999.0,80,-99.99,,,0.00,weatherlink.com 1.10,2013-03-03 14:25:00,
2013-03-03 09:40:00,20.1,15.0,30.18,NNE,13,5.0,-999.0,79,-99.99,,,0.00,weatherlink.com 1.10,2013-03-03 14:40:00,
2013-03-03 09:55:00,20.5,15.0,30.18,North,355,5.0,-999.0,79,-99.99,,,0.00,weatherlink.com 1.10,2013-03-03 14:55:00,
2013-03-03 10:10:00,20.8,16.0,30.18,North,5,2.0,-999.0,81,-99.99,,,0.00,weatherlink.com 1.10,2013-03-03 15:10:00,
2013-03-03 10:25:00,20.8,16.0,30.18,NNW,344,8.0,-999.0,81,-99.99,,,0.00,weatherlink.com 1.10,2013-03-03 15:25:00,
2013-03-03 10:40:00,21.1,15.0,30.18,North,351,10.0,-999.0,76,-99.99,,,0.00,weatherlink.com 1.10,2013-03-03 15:40:00,
2013-03-03 10:56:00,20.7,15.0,30.18,North,360,12.0,-999.0,78,-99.99,,,0.00,weatherlink.com 1.10,2013-03-03 15:56:00,
2013-03-03 11:11:00,20.8,15.0,30.18,NE,34,8.0,-999.0,79,-99.99,,,0.00,weatherlink.com 1.10,2013-03-03 16:11:00,
2013-03-03 11:26:00,21.9,15.0,30.18,NNW,348,9.0,-999.0,75,-99.99,,,0.00,weatherlink.com 1.10,2013-03-03 16:26:00,
2013-03-03 11:41:00,22.6,16.0,30.18,North,5,10.0,-999.0,76,-99.99,,,0.00,weatherlink.com 1.10,2013-03-03 16:41:00,
2013-03-03 11:56:00,23.5,16.0,30.18,NNE,18,7.0,-999.0,72,-99.99,,,0.00,weatherlink.com 1.10,2013-03-03 16:56:00,
2013-03-03 12:11:00,23.8,16.0,30.18,NNW,346,6.0,-999.0,71,-99.99,,,0.00,weatherlink.com 1.10,2013-03-03 17:11:00,
2013-03-03 12:26:00,23.1,16.0,30.17,NNE,28,6.0,-999.0,73,-99.99,,,0.00,weatherlink.com 1.10,2013-03-03 17:26:00,
2013-03-03 12:41:00,23.7,16.0,30.17,NNE,17,10.0,-999.0,73,-99.99,,,0.00,weatherlink.com 1.10,2013-03-03 17:41:00,
2013-03-03 12:56:00,24.6,16.0,30.16,NE,44,3.0,-999.0,71,-99.99,,,0.00,weatherlink.com 1.10,2013-03-03 17:56:00,
2013-03-03 13:11:00,24.8,17.0,30.16,NNW,338,9.0,-999.0,72,-99.99,,,0.00,weatherlink.com 1.10,2013-03-03 18:11:00,
2013-03-03 13:26:00,24.0,17.0,30.16,North,355,8.0,-999.0,76,-99.99,,,0.00,weatherlink.com 1.10,2013-03-03 18:26:00,
2013-03-03 13:42:00,23.1,18.0,30.15,North,360,9.0,-999.0,82,-99.99,,,0.00,weatherlink.com 1.10,2013-03-03 18:42:00,
2013-03-03 13:57:00,22.4,18.0,30.15,ENE,75,10.0,-999.0,83,-99.99,,,0.00,weatherlink.com 1.10,2013-03-03 18:57:00,
2013-03-03 14:12:00,22.5,18.0,30.14,NNW,345,4.0,-999.0,82,-99.99,,,0.00,weatherlink.com 1.10,2013-03-03 19:12:00,
2013-03-03 14:27:00,22.9,17.0,30.14,NNW,336,9.0,-999.0,79,-99.99,,,0.00,weatherlink.com 1.10,2013-03-03 19:27:00,
2013-03-03 14:42:00,23.8,18.0,30.14,NE,55,6.0,-999.0,77,-99.99,,,0.00,weatherlink.com 1.10,2013-03-03 19:42:00,
2013-03-03 14:57:00,23.7,17.0,30.15,NNW,348,6.0,-999.0,74,-99.99,,,0.00,weatherlink.com 1.10,2013-03-03 19:57:00,
2013-03-03 15:12:00,24.3,17.0,30.15,North,350,12.0,-999.0,73,-99.99,,,0.00,weatherlink.com 1.10,2013-03-03 20:12:00,
2013-03-03 15:27:00,23.6,16.0,30.15,North,5,5.0,-999.0,72,-99.99,,,0.00,weatherlink.com 1.10,2013-03-03 20:27:00,
2013-03-03 15:42:00,23.8,17.0,30.15,North,355,11.0,-999.0,74,-99.99,,,0.00,weatherlink.com 1.10,2013-03-03 20:42:00,
2013-03-03 15:57:00,22.9,16.0,30.16,North,355,9.0,-999.0,74,-99.99,,,0.00,weatherlink.com 1.10,2013-03-03 20:57:00,
2013-03-03 16:12:00,23.2,16.0,30.15,North,355,6.0,-999.0,74,-99.99,,,0.00,weatherlink.com 1.10,2013-03-03 21:12:00,
2013-03-03 16:27:00,23.0,16.0,30.15,North,355,10.0,-999.0,73,-99.99,,,0.00,weatherlink.com 1.10,2013-03-03 21:27:00,
2013-03-03 16:42:00,21.8,15.0,30.16,NNW,327,13.0,-999.0,76,-99.99,,,0.00,weatherlink.com 1.10,2013-03-03 21:42:00,
2013-03-03 16:58:00,22.6,15.0,30.16,NNW,343,5.0,-999.0,74,-99.99,,,0.00,weatherlink.com 1.10,2013-03-03 21:58:00,
2013-03-03 17:13:00,21.7,15.0,30.16,NNW,336,10.0,-999.0,74,-99.99,,,0.00,weatherlink.com 1.10,2013-03-03 22:13:00,
2013-03-03 17:28:00,20.4,14.0,30.16,NNW,337,7.0,-999.0,77,-99.99,,,0.00,weatherlink.com 1.10,2013-03-03 22:28:00,
2013-03-03 17:43:00,19.8,14.0,30.16,North,355,11.0,-999.0,78,-99.99,,,0.00,weatherlink.com 1.10,2013-03-03 22:43:00,
2013-03-03 17:58:00,19.9,14.0,30.16,North,355,8.0,-999.0,79,-99.99,,,0.00,weatherlink.com 1.10,2013-03-03 22:58:00,
2013-03-03 18:13:00,20.1,15.0,30.16,NNW,335,6.0,-999.0,81,-99.99,,,0.00,weatherlink.com 1.10,2013-03-03 23:13:00,
2013-03-03 18:28:00,20.0,15.0,30.16,North,355,7.0,-999.0,80,-99.99,,,0.00,weatherlink.com 1.10,2013-03-03 23:28:00,
2013-03-03 18:43:00,19.9,15.0,30.17,North,355,6.0,-999.0,82,-99.99,,,0.00,weatherlink.com 1.10,2013-03-03 23:43:00,
2013-03-03 18:58:00,19.8,15.0,30.17,NNW,336,6.0,-999.0,81,-99.99,,,0.00,weatherlink.com 1.10,2013-03-03 23:58:00,
2013-03-03 19:13:00,19.7,15.0,30.16,NNW,335,4.0,-999.0,82,-99.99,,,0.00,weatherlink.com 1.10,2013-03-04 00:13:00,
2013-03-03 19:28:00,19.7,15.0,30.17,NNW,336,4.0,-999.0,82,-99.99,,,0.00,weatherlink.com 1.10,2013-03-04 00:28:00,
2013-03-03 19:43:00,19.7,15.0,30.17,NNW,336,7.0,-999.0,83,-99.99,,,0.00,weatherlink.com 1.10,2013-03-04 00:43:00,
2013-03-03 19:59:00,19.8,15.0,30.17,NNW,336,6.0,-999.0,83,-99.99,,,0.00,weatherlink.com 1.10,2013-03-04 00:59:00,
2013-03-03 20:13:00,19.8,15.0,30.17,North,355,8.0,-999.0,83,-99.99,,,0.00,weatherlink.com 1.10,2013-03-04 01:13:00,
2013-03-03 20:29:00,19.8,15.0,30.17,NNW,340,3.0,-999.0,83,-99.99,,,0.00,weatherlink.com 1.10,2013-03-04 01:29:00,
2013-03-03 20:44:00,19.8,16.0,30.17,NNW,348,3.0,-999.0,84,-99.99,,,0.00,weatherlink.com 1.10,2013-03-04 01:44:00,
2013-03-03 20:59:00,19.9,16.0,30.17,NNW,347,5.0,-999.0,84,-99.99,,,0.00,weatherlink.com 1.10,2013-03-04 01:59:00,
2013-03-03 21:14:00,20.0,16.0,30.17,North,355,2.0,-999.0,84,-99.99,,,0.00,weatherlink.com 1.10,2013-03-04 02:14:00,
2013-03-03 21:29:00,19.9,16.0,30.17,North,351,2.0,-999.0,84,-99.99,,,0.00,weatherlink.com 1.10,2013-03-04 02:29:00,
2013-03-03 21:44:00,19.9,16.0,30.17,NNW,340,2.0,-999.0,84,-99.99,,,0.00,weatherlink.com 1.10,2013-03-04 02:44:00,
2013-03-03 21:59:00,19.9,16.0,30.17,NNW,339,7.0,-999.0,85,-99.99,,,0.00,weatherlink.com 1.10,2013-03-04 02:59:00,
2013-03-03 22:14:00,19.7,16.0,30.17,NW,325,4.0,-999.0,85,-99.99,,,0.00,weatherlink.com 1.10,2013-03-04 03:14:00,
2013-03-03 22:29:00,19.6,16.0,30.16,North,355,5.0,-999.0,84,-99.99,,,0.00,weatherlink.com 1.10,2013-03-04 03:29:00,
2013-03-03 22:44:00,19.3,16.0,30.16,North,355,7.0,-999.0,85,-99.99,,,0.00,weatherlink.com 1.10,2013-03-04 03:44:00,
2013-03-03 22:59:00,19.1,15.0,30.16,NNW,333,4.0,-999.0,84,-99.99,,,0.00,weatherlink.com 1.10,2013-03-04 03:59:00,
2013-03-03 23:14:00,18.8,15.0,30.16,NNW,329,5.0,-999.0,85,-99.99,,,0.00,weatherlink.com 1.10,2013-03-04 04:14:00,
2013-03-03 23:29:00,18.6,15.0,30.17,NNW,331,3.0,-999.0,86,-99.99,,,0.00,weatherlink.com 1.10,2013-03-04 04:29:00,
2013-03-03 23:45:00,18.4,15.0,30.17,NNW,332,1.0,-999.0,86,-99.99,,,0.00,weatherlink.com 1.10,2013-03-04 04:45:00,